This is the latest recevied weather packets stored in our database for station/object KQ4WWD. If no packets are shown the sender has not sent any weather packets the latest 10 day(s).
| Time | Temp. | Humidity | Pressure | Rain* | Wind** | Luminosity | Snow |
|---|---|---|---|---|---|---|---|
| 1788353160 | 26.11° C | 95% | 1016.5 hPa | 0 mm | - | 94 W/m² | - |
| 1788352859 | 26.11° C | 95% | 1016.5 hPa | 0 mm | - | 104 W/m² | - |
| 1788352555 | 25.56° C | 95% | 1016.5 hPa | 0 mm | - | 103 W/m² | - |
| 1788352250 | 25.56° C | 95% | 1016.3 hPa | 0 mm | - | 122 W/m² | - |
| 1788351949 | 25.56° C | 95% | 1016.5 hPa | 0 mm | - | 75 W/m² | - |
| 1788351645 | 25.56° C | 95% | 1016.7 hPa | 0 mm | - | 72 W/m² | - |
| 1788351345 | 25.56° C | 95% | 1016.4 hPa | 0 mm | - | 70 W/m² | - |
| 1788351040 | 25° C | 95% | 1016.5 hPa | 0 mm | - | 63 W/m² | - |
| 1788350736 | 25° C | 95% | 1016.4 hPa | 0 mm | - | 63 W/m² | - |
| 1788350432 | 25° C | 96% | 1016.4 hPa | 0 mm | - | 55 W/m² | - |
| 1788350132 | 25° C | 95% | 1016.3 hPa | 0 mm | - | 41 W/m² | - |
| 1788349829 | 25° C | 95% | 1016.1 hPa | 0 mm | - | 41 W/m² | - |
| 1788349525 | 25° C | 95% | 1016.2 hPa | 0 mm | - | 31 W/m² | - |
| 1788349224 | 25° C | 95% | 1016.3 hPa | 0 mm | - | 24 W/m² | - |
| 1788348920 | 25° C | 95% | 1016.3 hPa | 0 mm | - | 21 W/m² | - |
| 1788348615 | 25° C | 95% | 1016.1 hPa | 0 mm | - | 18 W/m² | - |
| 1788348310 | 25° C | 95% | 1015.9 hPa | 0 mm | - | 12 W/m² | - |
| 1788348007 | 25° C | 95% | 1016 hPa | 0 mm | - | 8 W/m² | - |
| 1788347703 | 25° C | 95% | 1016 hPa | 0 mm | - | 6 W/m² | - |
| 1788347398 | 25° C | 95% | 1015.9 hPa | 0 mm | - | 2 W/m² | - |
| 1788347094 | 25° C | 95% | 1016 hPa | 0 mm | - | 0 W/m² | - |
| 1788346789 | 25° C | 95% | 1016 hPa | 0 mm | - | 0 W/m² | - |
| 1788346484 | 25° C | 95% | 1016 hPa | 0 mm | - | 0 W/m² | - |
| 1788346179 | 25° C | 95% | 1016 hPa | 0 mm | - | 0 W/m² | - |
| 1788345875 | 25° C | 95% | 1016.1 hPa | 0 mm | - | 0 W/m² | - |
* Rain latest hour (hover to see other rain measurements)
** Current wind speed in m/s (hover to see current wind gust speed)